[[{"header":{"parameterUnit":"m.s-1","parameterCategory":1,"la1":30.2991,"la2":30.254,"lo1":-89.0895,"lo2":-89.0444,"dy":0.0017,"dx":0.0017,"nx":28,"ny":28,"refTime":"2025-04-06T09:00:00:Z","depth":0,"parameterNumber":2,"parameterNumberName":"U-component_of_WINDS"},"data":[0,0,0,0,0,0,0,0,0,0,0,0,0,0,0,0,0,0,0,0,0,0,0,0,0,0,0,0,0,0,0,0,0,0,0,0,0,0,0,0,0,0,0,0,0,0,0,0,0,0,0,0,0,0,0,0,0,0,-0.2868,-0.2869,0,-0.2931,-0.2932,-0.2932,-0.2976,-0.2977,-0.2977,-0.2977,-0.3043,-0.3044,-0.3045,0,0,0,0,0,0,0,0,0,0,0,0,0,-0.2786,-0.2788,-0.2868,-0.2869,-0.2869,-0.2931,-0.2932,-0.2933,-0.2976,-0.2977,-0.2977,-0.2978,-0.3042,-0.3044,-0.3046,0,0,0,0,0,0,0,0,0,0,0,0,0,-0.2833,-0.2788,-0.2868,-0.2899,-0.2902,-0.2931,-0.2932,-0.2933,-0.2976,-0.2977,-0.2977,-0.2978,-0.3042,-0.3044,-0.3046,-0.3049,0,0,-0.3052,-0.3053,0,0,0,0,0,0,0,0,-0.283,-0.2836,-0.2893,-0.2897,-0.29,-0.2946,-0.2927,-0.2972,-0.2976,-0.2948,-0.2977,-0.2978,-0.301,-0.3015,-0.3026,-0.3052,-0.3055,-0.3053,-0.3054,-0.3055,-0.3055,0,0,0,0,0,0,0,-0.2827,-0.2833,-0.2893,-0.2894,-0.2898,-0.291,-0.2917,-0.2936,-0.2976,-0.2951,-0.2954,-0.2961,-0.3012,-0.3024,-0.3028,-0.3056,-0.3053,-0.3054,-0.3056,-0.3057,-0.3089,-0.3088,0,0,0,0,0,0,-0.2819,-0.283,-0.2891,-0.2895,-0.2866,-0.2911,-0.2919,-0.2931,-0.2976,-0.2983,-0.296,-0.2963,-0.302,-0.3025,-0.303,-0.3037,-0.3055,-0.3057,-0.3058,-0.3089,-0.3088,-0.3088,0,0,0,0,0,0,-0.2817,-0.2824,-0.2888,-0.2864,-0.2873,-0.2912,-0.2925,-0.2932,-0.2943,-0.2983,-0.299,-0.2964,-0.302,-0.3027,-0.3044,-0.304,-0.3058,-0.306,-0.309,-0.3089,-0.3088,-0.3051,0,0,0,0,0,0,-0.2814,-0.2823,-0.2824,-0.2863,-0.2874,-0.2901,-0.2925,-0.2933,-0.2947,-0.2951,-0.2989,-0.2995,-0.3021,-0.3041,-0.3046,-0.3043,-0.3061,-0.309,-0.3089,-0.3088,-0.3053,-0.3049,-0.3046,0,0,0,0,0,-0.2811,-0.2811,-0.2824,-0.2831,-0.2876,-0.29,-0.2907,-0.2936,-0.2946,-0.2948,-0.2974,-0.2994,-0.3039,-0.3042,-0.3049,-0.3046,-0.309,-0.3089,-0.3089,-0.3054,-0.305,-0.3046,0,0,0,0,0,0,-0.2771,-0.2817,-0.2832,-0.2844,-0.2868,-0.2908,-0.2911,-0.293,-0.2952,-0.2955,-0.299,-0.2999,-0.3012,-0.3031,-0.3033,-0.3052,-0.3068,-0.3068,-0.3039,-0.3035,-0.3032,-0.3027,-0.3063,0,0,0,0,0,-0.2763,-0.2779,-0.2818,-0.2825,-0.2837,-0.2872,-0.2883,-0.2904,-0.293,-0.2941,-0.2967,-0.2993,-0.3013,-0.3025,-0.3045,-0.3056,-0.3065,-0.3057,-0.3054,-0.3051,-0.3051,-0.3058,-0.3055,-0.3085,-0.3085,-0.3085,0,0,-0.2748,-0.2775,-0.2783,-0.2818,-0.2839,-0.2855,-0.288,-0.2895,-0.2908,-0.2943,-0.2961,-0.2981,-0.3012,-0.3025,-0.3033,-0.3042,-0.3045,-0.305,-0.3047,-0.3049,-0.3057,-0.3054,-0.3051,-0.3084,-0.3084,-0.3084,0,0,-0.2728,-0.275,-0.2758,-0.2779,-0.281,-0.2834,-0.2836,-0.2873,-0.2888,-0.2906,-0.2933,-0.2948,-0.2982,-0.3002,-0.3017,-0.3005,-0.3025,-0.3011,-0.2994,-0.3,-0.2998,-0.2996,-0.2992,-0.299,-0.3011,-0.3011,-0.3011,0,-0.2705,-0.2729,-0.276,-0.2774,-0.2789,-0.2822,-0.2831,-0.285,-0.2886,-0.2896,-0.2906,-0.2949,-0.2971,-0.299,-0.2987,-0.2998,-0.3002,-0.3007,-0.2996,-0.2994,-0.2993,-0.299,-0.2988,-0.3009,-0.3009,-0.3009,-0.3009,0,-0.27,-0.2716,-0.272,-0.2754,-0.2769,-0.2781,-0.2814,-0.2826,-0.2845,-0.2867,-0.2886,-0.2914,-0.2941,-0.2947,-0.2966,-0.2969,-0.2974,-0.2989,-0.3005,-0.2988,-0.2985,-0.2984,-0.3006,-0.3007,-0.3007,-0.3008,0,0,-0.2656,-0.2708,-0.2708,-0.2724,-0.2761,-0.2775,-0.2788,-0.2814,-0.2824,-0.2848,-0.286,-0.2888,-0.2902,-0.2919,-0.2941,-0.2947,-0.2936,-0.2961,-0.2963,-0.2956,-0.2941,-0.293,-0.2928,-0.2949,-0.2949,-0.2949,-0.2939,0,-0.2643,-0.2667,-0.2696,-0.2711,-0.2727,-0.2758,-0.277,-0.2794,-0.2815,-0.2832,-0.2856,-0.2875,-0.2893,-0.2903,-0.291,-0.2936,-0.2934,-0.2937,-0.2962,-0.2962,-0.2953,-0.2927,-0.2915,-0.2904,-0.2938,-0.2938,-0.2938,0,-0.263,-0.2652,-0.2669,-0.2705,-0.2712,-0.2722,-0.2749,-0.2764,-0.2792,-0.2808,-0.2826,-0.285,-0.2866,-0.288,-0.2902,-0.2904,-0.2916,-0.293,-0.293,-0.2934,-0.2949,-0.293,-0.2901,-0.2899,-0.2937,-0.2937,-0.2937,0,-0.2597,-0.2631,-0.2645,-0.2658,-0.27,-0.2707,-0.2724,-0.2753,-0.2767,-0.2791,-0.28,-0.2825,-0.2839,-0.2857,-0.2887,-0.2894,-0.2907,-0.2923,-0.292,-0.2919,-0.2921,-0.2921,-0.2894,-0.2928,-0.2928,-0.2928,-0.2928,0,-0.2578,-0.2588,-0.2631,-0.264,-0.2651,-0.2684,-0.2694,-0.2715,-0.2741,-0.2755,-0.2783,-0.2796,-0.2834,-0.2851,-0.2874,-0.289,-0.2896,-0.2909,-0.2915,-0.2906,-0.2905,-0.2915,-0.2916,-0.2928,-0.2928,-0.2928,-0.2928,0,-0.2544,-0.2573,-0.2591,-0.2629,-0.2639,-0.2646,-0.2679,-0.2689,-0.2712,-0.2729,-0.2735,-0.2772,-0.2793,-0.2824,-0.2856,-0.2871,-0.2884,-0.2893,-0.2874,-0.2878,-0.2873,-0.2873,-0.2852,-0.2851,-0.2885,-0.2885,-0.2884,0,-0.253,-0.2538,-0.2577,-0.2588,-0.2605,-0.2623,-0.2637,-0.267,-0.2683,-0.2716,-0.2723,-0.2746,-0.2767,-0.2801,-0.283,-0.2854,-0.2865,-0.2856,-0.2869,-0.286,-0.2865,-0.2865,-0.2866,-0.2853,-0.2852,-0.2852,-0.2852,0,-0.2503,-0.2518,-0.2537,-0.2562,-0.2578,-0.2599,-0.2621,-0.2629,-0.2666,-0.2681,-0.2703,-0.2719,-0.2751,-0.2775,-0.2803,-0.2822,-0.2843,-0.2847,-0.2848,-0.2839,-0.2828,-0.2835,-0.2866,-0.2848,-0.2848,-0.2848,-0.2849,-0.2849,-0.2479,-0.2488,-0.2517,-0.2537,-0.2557,-0.2578,-0.2589,-0.2613,-0.2632,-0.2661,-0.2679,-0.27,-0.2729,-0.2769,-0.2787,-0.2805,-0.2814,-0.2814,-0.2815,-0.2814,-0.2812,-0.2825,-0.281,-0.281,-0.281,-0.281,-0.2811,0,-0.2455,-0.2474,-0.2493,-0.2523,-0.254,-0.2558,-0.2584,-0.2596,-0.2615,-0.2639,-0.2659,-0.2685,-0.2708,-0.2739,-0.2765,-0.2773,-0.2783,-0.2778,-0.2778,-0.2783,-0.2802,-0.2799,-0.277,-0.277,-0.277,-0.277,-0.277,-0.277,-0.2444,-0.2459,-0.2476,-0.2502,-0.2522,-0.2543,-0.2556,-0.2575,-0.2595,-0.2623,-0.2642,-0.2662,-0.2689,-0.2717,-0.2739,-0.2748,-0.2756,-0.2748,-0.276,-0.2777,-0.2781,-0.2785,-0.2782,-0.2749,-0.2749,-0.2739,-0.2739,-0.2739]},{"header":{"parameterUnit":"m.s-1","parameterCategory":1,"la1":30.2991,"la2":30.254,"lo1":-89.0895,"lo2":-89.0444,"dy":0.0017,"dx":0.0017,"nx":28,"ny":28,"refTime":"2025-04-06T09:00:00:Z","depth":0,"parameterNumber":3,"parameterNumberName":"V-component_of_WINDS"},"data":[0,0,0,0,0,0,0,0,0,0,0,0,0,0,0,0,0,0,0,0,0,0,0,0,0,0,0,0,0,0,0,0,0,0,0,0,0,0,0,0,0,0,0,0,0,0,0,0,0,0,0,0,0,0,0,0,0,0,7.077,7.0773,0,7.0983,7.0986,7.0988,7.1023,7.1021,7.1019,7.1017,7.1237,7.1244,7.1252,0,0,0,0,0,0,0,0,0,0,0,0,0,7.0397,7.0403,7.077,7.0773,7.0776,7.0983,7.0986,7.0989,7.1023,7.1021,7.1019,7.1017,7.1234,7.1243,7.1252,0,0,0,0,0,0,0,0,0,0,0,0,0,7.0579,7.0405,7.077,7.0818,7.0824,7.0982,7.0986,7.0989,7.1024,7.1021,7.1018,7.1015,7.1231,7.1242,7.1253,7.1379,0,0,7.1288,7.1293,0,0,0,0,0,0,0,0,7.0569,7.0593,7.0808,7.0815,7.0822,7.0974,7.0934,7.112,7.1024,7.0948,7.1017,7.1014,7.1151,7.1169,7.1215,7.1389,7.1399,7.1289,7.1296,7.1301,7.1304,0,0,0,0,0,0,0,7.0556,7.0584,7.0854,7.0811,7.082,7.083,7.0852,7.097,7.1063,7.0954,7.0957,7.0982,7.1155,7.1204,7.1221,7.1402,7.1289,7.1299,7.1306,7.131,7.1692,7.1696,0,0,0,0,0,0,7.0534,7.0573,7.0848,7.0861,7.0686,7.0839,7.0864,7.0928,7.1061,7.1079,7.0984,7.0983,7.1186,7.1207,7.1228,7.1386,7.1301,7.1311,7.1318,7.1689,7.1693,7.1697,0,0,0,0,0,0,7.0526,7.0559,7.0839,7.0718,7.0754,7.0848,7.0919,7.0933,7.0983,7.1084,7.1101,7.1017,7.1185,7.1213,7.1342,7.1394,7.1317,7.1327,7.1685,7.169,7.1695,7.1701,0,0,0,0,0,0,7.0515,7.0555,7.0603,7.0719,7.0761,7.0948,7.0922,7.094,7.1002,7.1002,7.112,7.1136,7.1185,7.1325,7.1353,7.1408,7.1336,7.1681,7.1687,7.1693,7.1697,7.1706,7.1713,0,0,0,0,0,7.0502,7.0596,7.0605,7.0638,7.0822,7.0951,7.0975,7.1028,7.1006,7.1056,7.1121,7.1133,7.1384,7.1338,7.137,7.1429,7.1678,7.1686,7.1693,7.1693,7.1704,7.1713,0,0,0,0,0,0,7.0484,7.0612,7.0624,7.0758,7.0843,7.0956,7.102,7.1038,7.1131,7.1128,7.1191,7.1217,7.1343,7.1399,7.1346,7.1559,7.1529,7.1544,7.1518,7.153,7.1538,7.1522,7.1345,0,0,0,0,0,7.0496,7.0589,7.0696,7.0804,7.0846,7.0926,7.0984,7.1018,7.1109,7.1145,7.122,7.1308,7.1408,7.1472,7.1568,7.1705,7.1732,7.1762,7.177,7.1777,7.1789,7.1868,7.1883,7.1722,7.1722,7.1721,0,0,7.0521,7.0603,7.0657,7.0803,7.0873,7.0969,7.0956,7.1058,7.113,7.1161,7.1288,7.1346,7.1449,7.1583,7.1646,7.1634,7.1839,7.1786,7.1791,7.1799,7.1877,7.1892,7.1906,7.1727,7.1726,7.1725,0,0,7.0617,7.0687,7.0786,7.0857,7.0963,7.1016,7.1039,7.1151,7.1191,7.1319,7.1345,7.1432,7.1601,7.1674,7.1733,7.1859,7.1874,7.1888,7.1932,7.2009,7.2022,7.2033,7.208,7.2096,7.19,7.19,7.19,0,7.0635,7.078,7.0834,7.0936,7.1,7.1032,7.1134,7.12,7.1333,7.1377,7.1361,7.1575,7.1647,7.18,7.183,7.1877,7.1907,7.1875,7.2015,7.2027,7.2039,7.2084,7.2102,7.1901,7.1901,7.1901,7.1901,0,7.0798,7.0899,7.0966,7.1094,7.1165,7.1266,7.1337,7.1403,7.1431,7.1486,7.1618,7.1705,7.1821,7.1859,7.1887,7.2017,7.2007,7.2002,7.1973,7.2055,7.2099,7.2116,7.1903,7.1902,7.1902,7.1902,0,0,7.0888,7.1045,7.1069,7.1129,7.1249,7.1329,7.1432,7.1545,7.1602,7.1692,7.1782,7.1925,7.1922,7.199,7.2027,7.2093,7.219,7.2081,7.2085,7.21,7.2341,7.2345,7.2364,7.22,7.2204,7.2207,7.2333,0,7.0999,7.1184,7.1237,7.1393,7.1488,7.152,7.1611,7.1695,7.175,7.1839,7.1899,7.2,7.1988,7.2029,7.2097,7.2164,7.2239,7.2155,7.2286,7.229,7.226,7.2386,7.239,7.2505,7.235,7.2353,7.2355,0,7.1153,7.1247,7.1413,7.1523,7.1565,7.1645,7.1755,7.1839,7.1936,7.1971,7.2047,7.2079,7.219,7.2154,7.2309,7.2251,7.2307,7.2348,7.2354,7.237,7.2328,7.2407,7.2543,7.2561,7.2382,7.238,7.2378,0,7.1204,7.1372,7.1494,7.1543,7.1675,7.1731,7.1788,7.1883,7.1948,7.2044,7.2088,7.2195,7.2254,7.2337,7.2398,7.2366,7.2548,7.2517,7.2582,7.2581,7.262,7.2617,7.2769,7.2654,7.2653,7.2653,7.2653,0,7.1323,7.1424,7.1519,7.1594,7.1708,7.1769,7.1881,7.194,7.2024,7.2112,7.2147,7.2229,7.2303,7.2396,7.2444,7.2566,7.2592,7.2625,7.2637,7.2623,7.2619,7.2661,7.2656,7.2658,7.2657,7.2656,7.2655,0,7.14,7.1467,7.1603,7.1716,7.1747,7.1827,7.1925,7.2,7.2056,7.2167,7.2197,7.2285,7.2396,7.2464,7.2605,7.2637,7.2773,7.2781,7.274,7.2745,7.2807,7.2801,7.2993,7.3023,7.2886,7.2887,7.2888,0,7.1472,7.1551,7.1673,7.1734,7.1793,7.1891,7.1958,7.2021,7.209,7.2208,7.2269,7.2383,7.2477,7.2653,7.273,7.2839,7.2851,7.2911,7.2867,7.2852,7.2854,7.285,7.2859,7.2918,7.2919,7.292,7.2921,0,7.1594,7.1624,7.1719,7.1827,7.1907,7.1995,7.2082,7.2131,7.2209,7.2285,7.2399,7.2472,7.2617,7.2729,7.2845,7.2906,7.2928,7.2934,7.2955,7.2943,7.2916,7.2934,7.2761,7.293,7.2929,7.2928,7.2928,7.2927,7.1672,7.1744,7.1842,7.1948,7.2021,7.2103,7.2179,7.2245,7.2341,7.2463,7.2495,7.2615,7.2713,7.287,7.2934,7.303,7.3021,7.3051,7.3059,7.3066,7.3068,7.29,7.3051,7.305,7.305,7.305,7.305,0,7.1797,7.1862,7.1959,7.2081,7.2165,7.2177,7.2276,7.2345,7.245,7.2539,7.2632,7.2764,7.2874,7.2961,7.3074,7.3135,7.3148,7.3162,7.3159,7.3174,7.3068,7.304,7.315,7.315,7.315,7.315,7.315,7.315,7.1873,7.1996,7.2038,7.2198,7.2263,7.238,7.2436,7.2512,7.2584,7.273,7.2822,7.2877,7.2966,7.3087,7.3189,7.3212,7.3253,7.3266,7.3291,7.3192,7.3181,7.317,7.3144,7.3274,7.3275,7.3389,7.339,7.3391]}]]